User: anonymous   Login
Location: Unspecified
(0.0000°N, 0.0000°E)
Time: 20:10:08
(UTC+00:00)
Language:

AO-7 - Orbit

View from above orbital plane
View from above orbital plane
View from above satellite
View from above satellite

Ground track
Ground track

The orbit data is extracted from the following two-line orbital elements,

1  7530U 74089B   18114.86481991 -.00000027 +00000-0 +10835-3 0  9994
2  7530 101.6820 082.9956 0012538 078.5706 336.2430 12.53632212987682
Epoch (UTC): 24 April 2018 20:45:20
Eccentricity: 0.0012538
inclination: 101.6820°
perigee height: 1439 km
apogee height: 1459 km
right ascension of ascending node: 82.9956°
argument of perigee: 78.5706°
revolutions per day: 12.53632212
mean anomaly at epoch: 336.2430°
orbit number at epoch: 98768

The dashed part of the orbit path shows where the satellite is in the earth's shadow,  

DLR